Home > Weather > Aurora > Past weeks

Flag for USA Weather for the Past 2 Weeks in Aurora, Colorado, USA

Now
41 °F

Clear.


Feels Like: 36 °F
Forecast: 41 / 73 °F
Wind: 9 mph from South

Location: Buckley Air Force Base

Current Time: May 4, 2016 at 6:32:40 AM

Latest Report: May 4, 2016 at 5:58 AM


Visibility: 10 mi

Pressure: 30.14 "Hg (24.62 "Hg at 1647m altitude)

Humidity: 63%

Dew Point: 29 °F

Location of AuroraLocation

Historic Weather in Aurora — Graph

°F

Aurora Temperature Yesterday

Maximum temperature yesterday: 65 °F (at 3:58 PM)
Minimum temperature yesterday: 37 °F (at 5:58 AM)
Average temperature yesterday: 53 °F

High & Low Weather Summary for the Past Weeks

 TemperatureHumidityPressure
High76 °F (Apr 22, 3:58 PM)100% (Apr 19, 5:03 AM)30.37 "Hg (Apr 19, 5:03 AM)
Low27 °F (May 2, 5:58 AM)17% (Apr 22, 2:58 PM)29.40 "Hg (Apr 23, 4:58 PM)
Average44 °F68%29.93 "Hg
* Reported Apr 19 4:58 AM — May 4 4:58 AM, Aurora, Weather by CustomWeather, © 2016

Note: Actual official high and low records may vary slightly from our data, if they occured in-between our weather recording intervals... More about our weather records

Advertising

Aurora Weather History for the Previous 24 Hours

Scroll right to see more
 ConditionsComfort  
Time TempWeatherWind HumidityBarometerVisibility
4:58 AM
Wed, May 4
42 °FClear.8 mph62%30.14 "Hg10 mi
3:58 AM43 °FClear.7 mph59%30.15 "Hg10 mi
2:58 AM42 °FClear.6 mph65%30.15 "Hg10 mi
1:58 AM44 °FClear.6 mph62%30.16 "Hg10 mi
12:58 AM46 °FClear.7 mphN/A30.16 "Hg10 mi
11:58 PM
Tue, May 3
48 °FClear.8 mph55%30.16 "Hg10 mi
10:58 PM48 °FClear.6 mph58%30.15 "Hg10 mi
9:58 PM53 °FClear.3 mph47%30.14 "Hg10 mi
8:58 PM54 °FClear.No wind45%30.13 "Hg10 mi
7:58 PM57 °FSunny.3 mph39%30.13 "Hg10 mi
6:58 PM62 °FSunny.10 mph29%30.11 "Hg10 mi
5:58 PM64 °FSunny.9 mph25%30.11 "Hg10 mi
4:58 PM64 °FSunny.12 mph24%30.11 "Hg10 mi
3:58 PM65 °FSunny.12 mph26%30.10 "Hg10 mi
2:58 PM64 °FSunny.12 mph26%30.12 "Hg10 mi
2:00 PM63 °FSunny.16 mph32%30.24 "Hg10 mi
1:58 PM62 °FSunny.13 mph31%30.14 "Hg10 mi
12:58 PM60 °FPassing clouds.13 mph33%30.13 "Hg10 mi
11:58 AM59 °FPassing clouds.20 mph35%30.14 "Hg10 mi
10:58 AM58 °FScattered clouds.16 mph36%30.14 "Hg10 mi
9:58 AM56 °FPassing clouds.15 mph39%30.14 "Hg10 mi
8:58 AM52 °FSunny.14 mph44%30.12 "Hg10 mi
7:58 AM47 °FSunny.7 mph53%30.13 "Hg10 mi
6:58 AM39 °FSunny.6 mph73%30.21 "Hg10 mi
Weather by CustomWeather, © 2016

See weather overviewHow to use our weather pages